User: anonymous   Login
Location: Unspecified
(0.0000°N, 0.0000°E)
Time: 06:59:08
(UTC+00:00)
Language:

CUBEBUG 2 - Orbit

View from above orbital plane
View from above orbital plane
View from above satellite
View from above satellite

Ground track
Ground track

The orbit data is extracted from the following two-line orbital elements,

1 39440U 13066AA  19167.03925543  .00000133  00000-0  25361-4 0  9999
2 39440  97.6015 165.6329 0081908  93.5604 267.4979 14.75851539299580
Epoch (UTC): 16 June 2019 00:56:31
Eccentricity: 0.0081908
inclination: 97.6015°
perigee height: 585 km
apogee height: 700 km
right ascension of ascending node: 165.6329°
argument of perigee: 93.5604°
revolutions per day: 14.75851539
mean anomaly at epoch: 267.4979°
orbit number at epoch: 29958

The dashed part of the orbit path shows where the satellite is in the earth's shadow,  

DLR